Zurück zum Katalog

TITAN 3C TRANSTAGE DEB

AktivLEO
NORAD 1716·DEBRIS·🇺🇸 United States

Gestartet Oct 15, 1965 von Cape Canaveral Space Force Station

Loading…

Nächste Überflüge (nächste 24 Stunden)

TLE

AktuellSource: Space-Track

Epoche: Sep 14, 2026, 09:36 UTC

1 01716U 65082BX  26257.40064908  .00000469  00000-0  92840-4 0  9995
2 01716  32.1889 144.7339 0037637  35.6247 324.6901 14.57649781221521

Verfolge TITAN 3C TRANSTAGE DEB in Echtzeit mit AllMySat

Download on the App Store